Home   Weather   Campeche   Past weeks
Flag for Mexico

Past Weather in Campeche, Campeche, Mexico — Yesterday and Last 2 Weeks

Now
91 °F

Scattered clouds.


Feels Like: 96 °F
Forecast: 94 / 79 °F
Wind: 6 mph from East

Location: Campeche

Current Time: May 26, 2019 at 12:45:37 pm

Latest Report: May 26, 2019 at 11:43 am


Visibility: 7 mi

Pressure: 29.94 "Hg

Humidity: 46%

Dew Point: 68 °F

Location of CampecheLocation

Past Weather in Campeche — Graph

°F

Campeche Temperature Yesterday

Maximum temperature yesterday: 97 °F (at 1:43 pm)
Minimum temperature yesterday: 75 °F (at 5:43 am)
Average temperature yesterday: 86 °F

High & Low Weather Summary for the Past Weeks

 TemperatureHumidityPressure
High102 °F (May 21, 3:44 pm)94% (May 25, 6:50 am)29.99 "Hg (May 25, 6:50 am)
Low73 °F (May 18, 5:44 am)25% (May 21, 4:48 pm)29.62 "Hg (May 21, 6:45 pm)
Average88 °F61%29.81 "Hg
* Reported May 11 11:46 am — May 26 11:43 am, Campeche. Weather by CustomWeather, © 2019

Note: Actual official high and low records may vary slightly from our data, if they occured in-between our weather recording intervals... More about our weather records

Advertising

Campeche Weather History for the Previous 24 Hours

Scroll right to see more
 ConditionsComfort  
Time TempWeatherWind HumidityBarometerVisibility
11:43 am
Sun, May 26
91 °FScattered clouds.6 mph46%29.94 "Hg7 mi
10:43 am88 °FScattered clouds.12 mph55%29.97 "Hg7 mi
9:44 am84 °FScattered clouds.12 mph66%29.95 "Hg7 mi
8:43 am82 °FScattered clouds.12 mph74%29.98 "Hg7 mi
7:41 am79 °FScattered clouds.8 mph94%29.99 "Hg7 mi
6:57 am77 °FScattered clouds.8 mph83%29.94 "Hg7 mi
11:40 pm
Sat, May 25
84 °FClear.17 mph62%29.93 "Hg7 mi
10:43 pm86 °FClear.17 mph59%29.93 "Hg7 mi
9:43 pm88 °FPassing clouds.17 mph55%29.90 "Hg7 mi
8:40 pm90 °FPassing clouds.17 mph52%29.87 "Hg7 mi
7:48 pm88 °FPassing clouds.17 mph62%29.84 "Hg7 mi
6:44 pm86 °FPassing clouds.12 mph70%29.81 "Hg7 mi
5:44 pm86 °FPassing clouds.17 mph70%29.84 "Hg7 mi
4:45 pm86 °FPassing clouds.17 mph75%29.85 "Hg7 mi
3:45 pm88 °FPassing clouds.17 mph59%29.82 "Hg7 mi
2:47 pm90 °FScattered clouds.17 mph59%29.87 "Hg7 mi
1:43 pm97 °FScattered clouds.12 mph32%29.88 "Hg7 mi
12:43 pm93 °FPassing clouds.12 mph39%29.87 "Hg7 mi
Weather by CustomWeather, © 2019

See weather overview